{"data":{"norad_id":65171,"epoch":"2026-05-25T03:12:06.693984Z","epoch_age_seconds":73953,"freshness":"FRESH","line1":"1 65171U 25174H   26145.13341081  .00000032  00000+0  41147-4 0  9993","line2":"2 65171  86.4876 259.6104 0002025  94.7641 265.3724 13.24404407 37736","mean_motion":13.24404407,"eccentricity":0.0002025,"inclination_deg":86.4876,"raan_deg":259.6104,"arg_perigee_deg":94.7641,"mean_anomaly_deg":265.3724,"bstar":4.1147e-5,"rev_number":3773,"period_min":108.72811902384,"perigee_km":1166.4153491493,"apogee_km":1169.4715117236,"semimajor_km":7546.0804304364,"source":"CELESTRAK","updated_at":"2026-05-25T13:38:05.174676Z"}}